JBU482 CYUL-KBOS

Flight info

Callsign JBU482
Flight time 1h 1m
Altitude 33000
Route VIRKA DCT TEMPR DCT ENE OOSHN5
Aircraft A320/M-SDE3FGHIRWY/LB1

Departure

Time 2026-05-07 00:41
Airport Montreal / Pierre Elliott Trudeau International Airport (CYUL)

Arrival

Time 2026-05-07 01:42
Airport Boston Logan International Airport (KBOS)
Time Latitude Longitude Altitude Speed Heading
2026-05-07 00:02 45.45668 -73.75425 105 ft 0 kts 117°
2026-05-07 00:23 45.45677 -73.75449 104 ft 4 kts 117°
2026-05-07 00:23 45.45689 -73.75483 103 ft 4 kts 117°
2026-05-07 00:24 45.45702 -73.75517 104 ft 4 kts 117°
2026-05-07 00:24 45.45710 -73.75538 103 ft 0 kts 117°
2026-05-07 00:28 45.45708 -73.75534 103 ft 2 kts 117°
2026-05-07 00:28 45.45708 -73.75503 104 ft 4 kts 74°
2026-05-07 00:29 45.45741 -73.75478 105 ft 7 kts 360°
2026-05-07 00:29 45.45763 -73.75538 105 ft 9 kts 262°
2026-05-07 00:30 45.45776 -73.75874 105 ft 13 kts 311°
2026-05-07 00:30 45.45863 -73.75943 105 ft 16 kts 349°
2026-05-07 00:30 45.45951 -73.75954 105 ft 11 kts
2026-05-07 00:30 45.46040 -73.75959 105 ft 14 kts 356°
2026-05-07 00:31 45.46123 -73.75911 102 ft 16 kts 73°
2026-05-07 00:31 45.46127 -73.75770 102 ft 16 kts 89°
2026-05-07 00:31 45.46133 -73.75611 102 ft 17 kts 87°
2026-05-07 00:31 45.46138 -73.75424 102 ft 21 kts 87°
2026-05-07 00:32 45.46143 -73.75248 101 ft 19 kts 89°
2026-05-07 00:32 45.46149 -73.75055 104 ft 20 kts 87°
2026-05-07 00:32 45.46155 -73.74852 104 ft 15 kts 89°
2026-05-07 00:32 45.46159 -73.74702 104 ft 17 kts 87°
2026-05-07 00:33 45.46136 -73.74553 104 ft 14 kts 123°
2026-05-07 00:33 45.46129 -73.74403 102 ft 17 kts 85°
2026-05-07 00:33 45.46135 -73.74249 103 ft 15 kts 87°
2026-05-07 00:33 45.46140 -73.74096 105 ft 14 kts 87°
2026-05-07 00:34 45.46199 -73.73978 105 ft 17 kts 43°
2026-05-07 00:34 45.46291 -73.73858 106 ft 18 kts 41°
2026-05-07 00:34 45.46389 -73.73730 106 ft 20 kts 43°
2026-05-07 00:34 45.46481 -73.73609 109 ft 17 kts 42°
2026-05-07 00:35 45.46572 -73.73489 111 ft 13 kts 42°
2026-05-07 00:35 45.46646 -73.73393 112 ft 16 kts 42°
2026-05-07 00:35 45.46732 -73.73282 113 ft 18 kts 43°
2026-05-07 00:35 45.46828 -73.73155 113 ft 19 kts 43°
2026-05-07 00:36 45.46932 -73.73018 115 ft 22 kts 42°
2026-05-07 00:36 45.47037 -73.72881 115 ft 21 kts 43°
2026-05-07 00:36 45.47147 -73.72735 116 ft 21 kts 44°
2026-05-07 00:36 45.47254 -73.72593 117 ft 19 kts 42°
2026-05-07 00:37 45.47358 -73.72458 116 ft 20 kts 43°
2026-05-07 00:37 45.47458 -73.72326 120 ft 16 kts 42°
2026-05-07 00:37 45.47544 -73.72214 118 ft 15 kts 42°
2026-05-07 00:37 45.47627 -73.72105 120 ft 13 kts 42°
2026-05-07 00:38 45.47703 -73.72005 118 ft 16 kts 43°
2026-05-07 00:38 45.47776 -73.71909 117 ft 14 kts 42°
2026-05-07 00:38 45.47842 -73.71826 120 ft 12 kts 41°
2026-05-07 00:38 45.47872 -73.71748 120 ft 7 kts 90°
2026-05-07 00:39 45.47845 -73.71685 121 ft 3 kts 134°
2026-05-07 00:39 45.47826 -73.71656 118 ft 9 kts 134°
2026-05-07 00:39 45.47763 -73.71573 120 ft 13 kts 159°
2026-05-07 00:40 45.47678 -73.71644 122 ft 18 kts 224°
2026-05-07 00:40 45.47465 -73.71927 121 ft 77 kts 221°
2026-05-07 00:40 45.46911 -73.72644 113 ft 135 kts 223°
2026-05-07 00:40 45.46185 -73.73635 587 ft 142 kts 224°
2026-05-07 00:41 45.45478 -73.74585 1320 ft 141 kts 226°
2026-05-07 00:41 45.44743 -73.75555 1842 ft 151 kts 225°
2026-05-07 00:41 45.43925 -73.76590 2293 ft 166 kts 225°
2026-05-07 00:41 45.43029 -73.77741 2724 ft 182 kts 226°
2026-05-07 00:42 45.42064 -73.79030 3169 ft 198 kts 227°
2026-05-07 00:42 45.40917 -73.80232 3698 ft 215 kts 207°
2026-05-07 00:42 45.39391 -73.80690 4305 ft 237 kts 180°
2026-05-07 00:42 45.37737 -73.80090 5000 ft 256 kts 154°
2026-05-07 00:43 45.36261 -73.78515 5683 ft 275 kts 137°
2026-05-07 00:43 45.34878 -73.76544 6500 ft 286 kts 134°
2026-05-07 00:43 45.33549 -73.74406 6882 ft 289 kts 131°
2026-05-07 00:43 45.32273 -73.72205 6988 ft 289 kts 130°
2026-05-07 00:44 45.31016 -73.69980 7007 ft 289 kts 130°
2026-05-07 00:44 45.29763 -73.67752 7004 ft 289 kts 130°
2026-05-07 00:44 45.28520 -73.65553 7008 ft 288 kts 130°
2026-05-07 00:44 45.27243 -73.63312 7005 ft 288 kts 130°
2026-05-07 00:45 45.25992 -73.61136 7008 ft 288 kts 130°
2026-05-07 00:45 45.25132 -73.59648 7011 ft 288 kts 131°
2026-05-07 00:45 45.23443 -73.56738 7005 ft 288 kts 131°
2026-05-07 00:45 45.22169 -73.54543 7012 ft 288 kts 131°
2026-05-07 00:46 45.20895 -73.52347 7012 ft 288 kts 130°
2026-05-07 00:46 45.19621 -73.50151 7011 ft 289 kts 130°
2026-05-07 00:46 45.18748 -73.48650 7310 ft 294 kts 131°
2026-05-07 00:46 45.17461 -73.46443 8329 ft 294 kts 133°
2026-05-07 00:47 45.16146 -73.44192 9295 ft 299 kts 135°
2026-05-07 00:47 45.14806 -73.41902 10148 ft 305 kts 135°
2026-05-07 00:47 45.13395 -73.39508 10510 ft 328 kts 135°
2026-05-07 00:47 45.11882 -73.36949 10889 ft 347 kts 135°
2026-05-07 00:48 45.10321 -73.34286 11561 ft 355 kts 135°
2026-05-07 00:48 45.08737 -73.31569 12320 ft 360 kts 135°
2026-05-07 00:48 45.07137 -73.28820 13077 ft 364 kts 135°
2026-05-07 00:48 45.05517 -73.26032 13817 ft 369 kts 135°
2026-05-07 00:49 45.03893 -73.23193 14504 ft 373 kts 135°
2026-05-07 00:49 45.02286 -73.20351 15167 ft 376 kts 135°
2026-05-07 00:49 45.00643 -73.17441 15853 ft 380 kts 135°
2026-05-07 00:49 44.98988 -73.14510 16505 ft 383 kts 135°
2026-05-07 00:50 44.97318 -73.11561 17184 ft 386 kts 136°
2026-05-07 00:50 44.95623 -73.08584 17849 ft 390 kts 136°
2026-05-07 00:50 44.93909 -73.05590 18457 ft 394 kts 136°
2026-05-07 00:50 44.92173 -73.02569 19064 ft 397 kts 136°
2026-05-07 00:51 44.90430 -72.99533 19680 ft 400 kts 136°
2026-05-07 00:51 44.88672 -72.96469 20298 ft 402 kts 136°
2026-05-07 00:51 44.86906 -72.93389 20891 ft 405 kts 136°
2026-05-07 00:51 44.85129 -72.90288 21472 ft 408 kts 136°
2026-05-07 00:52 44.83341 -72.87171 22075 ft 410 kts 136°
2026-05-07 00:52 44.81546 -72.84046 22652 ft 412 kts 136°
2026-05-07 00:52 44.79736 -72.80903 23229 ft 414 kts 136°
2026-05-07 00:52 44.77911 -72.77745 23738 ft 416 kts 136°
2026-05-07 00:53 44.76101 -72.74619 24207 ft 418 kts 136°
2026-05-07 00:53 44.74259 -72.71439 24683 ft 421 kts 136°
2026-05-07 00:53 44.72401 -72.68234 25123 ft 423 kts 136°
2026-05-07 00:53 44.70536 -72.65018 25581 ft 425 kts 136°
2026-05-07 00:54 44.68661 -72.61786 26032 ft 428 kts 136°
2026-05-07 00:54 44.66777 -72.58540 26470 ft 430 kts 136°
2026-05-07 00:54 44.64876 -72.55270 26910 ft 432 kts 136°
2026-05-07 00:54 44.62971 -72.51994 27346 ft 435 kts 135°
2026-05-07 00:55 44.61055 -72.48701 27790 ft 437 kts 135°
2026-05-07 00:55 44.59123 -72.45395 28241 ft 439 kts 135°
2026-05-07 00:55 44.57179 -72.42075 28672 ft 442 kts 135°
2026-05-07 00:55 44.55224 -72.38737 29102 ft 444 kts 135°
2026-05-07 00:56 44.53255 -72.35373 29509 ft 447 kts 135°
2026-05-07 00:56 44.51276 -72.31996 29909 ft 450 kts 135°
2026-05-07 00:56 44.49281 -72.28601 30226 ft 453 kts 135°
2026-05-07 00:56 44.47267 -72.25180 30503 ft 457 kts 135°
2026-05-07 00:57 44.45232 -72.21725 30766 ft 462 kts 136°
2026-05-07 00:57 44.43179 -72.18242 31030 ft 467 kts 136°
2026-05-07 00:57 44.41109 -72.14734 31409 ft 468 kts 136°
2026-05-07 00:57 44.39029 -72.11210 31795 ft 470 kts 136°
2026-05-07 00:58 44.36940 -72.07675 32158 ft 473 kts 136°
2026-05-07 00:58 44.34840 -72.04122 32509 ft 475 kts 136°
2026-05-07 00:58 44.32724 -72.00550 32770 ft 479 kts 137°
2026-05-07 00:58 44.30608 -71.96981 32835 ft 473 kts 137°
2026-05-07 00:59 44.24360 -71.86445 32824 ft 468 kts 137°
2026-05-07 01:00 44.20188 -71.79470 32821 ft 469 kts 137°
2026-05-07 01:00 44.16027 -71.72543 32819 ft 469 kts 137°
2026-05-07 01:01 44.11837 -71.65568 32811 ft 470 kts 137°
2026-05-07 01:01 44.07637 -71.58572 32791 ft 470 kts 137°
2026-05-07 01:02 44.03436 -71.51593 32777 ft 471 kts 137°
2026-05-07 01:02 43.99219 -71.44623 32754 ft 470 kts 137°
2026-05-07 01:03 43.95024 -71.37702 32688 ft 473 kts 137°
2026-05-07 01:03 43.92904 -71.34208 32316 ft 473 kts 137°
2026-05-07 01:03 43.90790 -71.30724 31916 ft 472 kts 137°
2026-05-07 01:03 43.88674 -71.27241 31532 ft 471 kts 137°
2026-05-07 01:04 43.86522 -71.23837 31141 ft 467 kts 139°
2026-05-07 01:04 43.84319 -71.20563 30762 ft 462 kts 141°
2026-05-07 01:04 43.82093 -71.17395 30389 ft 457 kts 142°
2026-05-07 01:04 43.79861 -71.14285 30019 ft 453 kts 142°
2026-05-07 01:05 43.77651 -71.11211 29628 ft 449 kts 142°
2026-05-07 01:05 43.75459 -71.08141 29205 ft 446 kts 141°
2026-05-07 01:05 43.73296 -71.05075 28789 ft 444 kts 141°
2026-05-07 01:05 43.71159 -71.02017 28377 ft 441 kts 141°
2026-05-07 01:06 43.69034 -70.98965 27969 ft 438 kts 141°
2026-05-07 01:06 43.66929 -70.95943 27568 ft 435 kts 141°
2026-05-07 01:06 43.64860 -70.92975 27184 ft 432 kts 141°
2026-05-07 01:06 43.62781 -70.89999 26792 ft 429 kts 141°
2026-05-07 01:07 43.60717 -70.87055 26405 ft 425 kts 142°
2026-05-07 01:07 43.58664 -70.84136 26028 ft 422 kts 142°
2026-05-07 01:07 43.56628 -70.81245 25657 ft 419 kts 142°
2026-05-07 01:07 43.54608 -70.78380 25284 ft 414 kts 142°
2026-05-07 01:08 43.52605 -70.75540 24917 ft 412 kts 142°
2026-05-07 01:08 43.50616 -70.72720 24545 ft 408 kts 142°
2026-05-07 01:08 43.48646 -70.69930 24200 ft 405 kts 142°
2026-05-07 01:08 43.46689 -70.67164 23871 ft 401 kts 142°
2026-05-07 01:09 43.44750 -70.64420 23764 ft 399 kts 142°
2026-05-07 01:09 43.42747 -70.61807 23779 ft 394 kts 148°
2026-05-07 01:09 43.40566 -70.59583 23784 ft 387 kts 155°
2026-05-07 01:09 43.38293 -70.57602 23782 ft 387 kts 156°
2026-05-07 01:10 43.36023 -70.55611 23783 ft 387 kts 155°
2026-05-07 01:10 43.33750 -70.53609 23782 ft 388 kts 155°
2026-05-07 01:10 43.31475 -70.51604 23785 ft 388 kts 155°
2026-05-07 01:10 43.29202 -70.49601 23788 ft 389 kts 155°
2026-05-07 01:11 43.26953 -70.47621 23787 ft 389 kts 155°
2026-05-07 01:11 43.24670 -70.45613 23783 ft 389 kts 155°
2026-05-07 01:11 43.22390 -70.43615 23793 ft 389 kts 155°
2026-05-07 01:11 43.20108 -70.41619 23793 ft 389 kts 155°
2026-05-07 01:12 43.17817 -70.39620 23796 ft 390 kts 156°
2026-05-07 01:12 43.15527 -70.37627 23789 ft 390 kts 156°
2026-05-07 01:12 43.13229 -70.35622 23792 ft 391 kts 155°
2026-05-07 01:12 43.10939 -70.33620 23799 ft 391 kts 155°
2026-05-07 01:13 43.08639 -70.31611 23802 ft 391 kts 155°
2026-05-07 01:13 43.06340 -70.29606 23589 ft 391 kts 155°
2026-05-07 01:13 43.04062 -70.27616 23334 ft 385 kts 155°
2026-05-07 01:13 43.01820 -70.25655 22882 ft 380 kts 155°
2026-05-07 01:14 42.99632 -70.23741 22452 ft 375 kts 156°
2026-05-07 01:14 42.97449 -70.21838 22024 ft 371 kts 156°
2026-05-07 01:14 42.95281 -70.19963 21585 ft 366 kts 156°
2026-05-07 01:14 42.93139 -70.18122 21151 ft 362 kts 156°
2026-05-07 01:15 42.91013 -70.16294 20707 ft 359 kts 157°
2026-05-07 01:15 42.88905 -70.14477 20249 ft 357 kts 157°
2026-05-07 01:15 42.86814 -70.12672 19803 ft 355 kts 157°
2026-05-07 01:15 42.84727 -70.10873 19335 ft 353 kts 157°
2026-05-07 01:16 42.82655 -70.09088 18870 ft 352 kts 158°
2026-05-07 01:16 42.80587 -70.07308 18394 ft 351 kts 158°
2026-05-07 01:16 42.78460 -70.05821 17937 ft 336 kts 170°
2026-05-07 01:16 42.76265 -70.05046 17599 ft 317 kts 181°
2026-05-07 01:17 42.74113 -70.04907 17169 ft 304 kts 192°
2026-05-07 01:17 42.72064 -70.05353 16735 ft 293 kts 202°
2026-05-07 01:17 42.70161 -70.06256 16319 ft 288 kts 207°
2026-05-07 01:17 42.68288 -70.07201 15868 ft 287 kts 207°
2026-05-07 01:18 42.66532 -70.08409 15408 ft 281 kts 218°
2026-05-07 01:18 42.65067 -70.10119 14964 ft 276 kts 230°
2026-05-07 01:18 42.63937 -70.12216 14535 ft 275 kts 240°
2026-05-07 01:18 42.63095 -70.14539 14101 ft 274 kts 244°
2026-05-07 01:19 42.62302 -70.16830 13903 ft 267 kts 244°
2026-05-07 01:19 42.61516 -70.19114 13724 ft 259 kts 244°
2026-05-07 01:19 42.60768 -70.21288 13678 ft 258 kts 244°
2026-05-07 01:19 42.60174 -70.23595 13607 ft 261 kts 256°
2026-05-07 01:20 42.59995 -70.26060 13226 ft 263 kts 263°
2026-05-07 01:20 42.59892 -70.28528 12876 ft 261 kts 263°
2026-05-07 01:20 42.59786 -70.30986 12529 ft 259 kts 263°
2026-05-07 01:20 42.59676 -70.33424 12189 ft 259 kts 263°
2026-05-07 01:21 42.59563 -70.35858 11849 ft 258 kts 263°
2026-05-07 01:21 42.59450 -70.38282 11502 ft 257 kts 263°
2026-05-07 01:21 42.59335 -70.40704 11166 ft 257 kts 263°
2026-05-07 01:21 42.59222 -70.43117 10829 ft 256 kts 264°
2026-05-07 01:22 42.59108 -70.45531 10492 ft 256 kts 264°
2026-05-07 01:22 42.58995 -70.47907 10154 ft 255 kts 264°
2026-05-07 01:22 42.58880 -70.50310 9822 ft 255 kts 264°
2026-05-07 01:22 42.58767 -70.52707 9468 ft 254 kts 264°
2026-05-07 01:23 42.58655 -70.55101 9124 ft 254 kts 264°
2026-05-07 01:23 42.58392 -70.57453 8789 ft 252 kts 253°
2026-05-07 01:23 42.57895 -70.59728 8446 ft 251 kts 253°
2026-05-07 01:23 42.57396 -70.62002 8110 ft 251 kts 253°
2026-05-07 01:24 42.56898 -70.64265 7776 ft 250 kts 253°
2026-05-07 01:24 42.56404 -70.66526 7440 ft 249 kts 255°
2026-05-07 01:24 42.56228 -70.68862 7108 ft 250 kts 272°
2026-05-07 01:24 42.56568 -70.71185 6769 ft 251 kts 278°
2026-05-07 01:25 42.56500 -70.73494 6433 ft 246 kts 251°
2026-05-07 01:25 42.55570 -70.75416 6182 ft 248 kts 226°
2026-05-07 01:25 42.54233 -70.76915 6019 ft 251 kts 220°
2026-05-07 01:25 42.52659 -70.77961 5991 ft 259 kts 198°
2026-05-07 01:26 42.50851 -70.77971 5998 ft 272 kts 171°
2026-05-07 01:26 42.49144 -70.76719 5994 ft 286 kts 141°
2026-05-07 01:26 42.48042 -70.74467 5995 ft 297 kts 115°
2026-05-07 01:26 42.47649 -70.71709 5991 ft 303 kts 90°
2026-05-07 01:27 42.48123 -70.68935 5992 ft 305 kts 63°
2026-05-07 01:27 42.49397 -70.66698 5994 ft 300 kts 36°
2026-05-07 01:27 42.51194 -70.65391 5996 ft 290 kts 10°
2026-05-07 01:27 42.53155 -70.65161 5992 ft 279 kts 346°
2026-05-07 01:28 42.54967 -70.65902 5999 ft 270 kts 329°
2026-05-07 01:28 42.56674 -70.66972 5998 ft 270 kts 329°
2026-05-07 01:28 42.58376 -70.68037 5992 ft 267 kts 329°
2026-05-07 01:28 42.60021 -70.69063 6000 ft 253 kts 329°
2026-05-07 01:29 42.61601 -70.70051 5989 ft 247 kts 329°
2026-05-07 01:29 42.63121 -70.70998 5998 ft 234 kts 329°
2026-05-07 01:29 42.64571 -70.71907 5994 ft 227 kts 328°
2026-05-07 01:29 42.66001 -70.72812 5994 ft 226 kts 328°
2026-05-07 01:30 42.67430 -70.73719 5985 ft 226 kts 328°
2026-05-07 01:30 42.68847 -70.74637 5988 ft 224 kts 323°
2026-05-07 01:30 42.70020 -70.75975 5763 ft 220 kts 308°
2026-05-07 01:30 42.70974 -70.77555 5395 ft 217 kts 292°
2026-05-07 01:31 42.71319 -70.79501 5026 ft 212 kts 265°
2026-05-07 01:31 42.71083 -70.81464 4654 ft 207 kts 257°
2026-05-07 01:31 42.70751 -70.83341 4273 ft 201 kts 256°
2026-05-07 01:31 42.70432 -70.85146 4008 ft 191 kts 260°
2026-05-07 01:32 42.70299 -70.86931 3997 ft 190 kts 265°
2026-05-07 01:32 42.70229 -70.88728 4001 ft 189 kts 266°
2026-05-07 01:32 42.70165 -70.90513 3997 ft 189 kts 266°
2026-05-07 01:32 42.69925 -70.92247 3995 ft 188 kts 243°
2026-05-07 01:33 42.68999 -70.93447 3995 ft 189 kts 207°
2026-05-07 01:33 42.67650 -70.93565 4001 ft 210 kts 171°
2026-05-07 01:33 42.66381 -70.92488 3993 ft 222 kts 135°
2026-05-07 01:33 42.65609 -70.90679 3996 ft 223 kts 122°
2026-05-07 01:34 42.65114 -70.89457 3995 ft 222 kts 125°
2026-05-07 01:34 42.64312 -70.87666 3993 ft 220 kts 134°
2026-05-07 01:34 42.63172 -70.86390 3995 ft 207 kts 162°
2026-05-07 01:34 42.61835 -70.85974 4016 ft 191 kts 188°
2026-05-07 01:35 42.60585 -70.86348 4006 ft 180 kts 211°
2026-05-07 01:35 42.59603 -70.87330 4000 ft 173 kts 232°
2026-05-07 01:35 42.58762 -70.89162 3995 ft 174 kts 236°
2026-05-07 01:35 42.58166 -70.89914 3994 ft 176 kts 215°
2026-05-07 01:36 42.57026 -70.90506 3973 ft 173 kts 207°
2026-05-07 01:36 42.55906 -70.91066 3835 ft 171 kts 207°
2026-05-07 01:36 42.54806 -70.91609 3638 ft 170 kts 206°
2026-05-07 01:36 42.53717 -70.92142 3425 ft 163 kts 207°
2026-05-07 01:37 42.52669 -70.92652 3215 ft 157 kts 207°
2026-05-07 01:37 42.51644 -70.93152 3025 ft 157 kts 206°
2026-05-07 01:37 42.50615 -70.93654 2811 ft 155 kts 206°
2026-05-07 01:37 42.49622 -70.94135 2598 ft 147 kts 207°
2026-05-07 01:38 42.48685 -70.94589 2411 ft 139 kts 208°
2026-05-07 01:38 42.47794 -70.95022 2230 ft 132 kts 207°
2026-05-07 01:38 42.46953 -70.95431 2061 ft 125 kts 208°
2026-05-07 01:38 42.46143 -70.95825 1892 ft 123 kts 208°
2026-05-07 01:39 42.45340 -70.96216 1732 ft 121 kts 209°
2026-05-07 01:39 42.44558 -70.96596 1574 ft 118 kts 208°
2026-05-07 01:39 42.43788 -70.96970 1408 ft 117 kts 206°
2026-05-07 01:39 42.43018 -70.97344 1256 ft 118 kts 206°
2026-05-07 01:40 42.42243 -70.97721 1094 ft 119 kts 206°
2026-05-07 01:40 42.41460 -70.98100 906 ft 123 kts 205°
2026-05-07 01:40 42.40635 -70.98497 745 ft 124 kts 202°
2026-05-07 01:40 42.39833 -70.98896 569 ft 124 kts 201°
2026-05-07 01:41 42.39019 -70.99294 398 ft 125 kts 201°
2026-05-07 01:41 42.38204 -70.99680 230 ft 124 kts 200°
2026-05-07 01:41 42.37393 -71.00079 57 ft 124 kts 201°
2026-05-07 01:41 42.36635 -71.00448 28 ft 97 kts 199°
2026-05-07 01:42 42.36165 -71.00674 30 ft 46 kts 200°
2026-05-07 01:42 42.36010 -71.00775 27 ft 12 kts 221°
2026-05-07 01:42 42.35925 -71.00906 27 ft 17 kts 230°
2026-05-07 01:42 42.35849 -71.01029 27 ft 13 kts 237°
2026-05-07 01:43 42.35834 -71.01135 28 ft 10 kts 276°
2026-05-07 01:43 42.35861 -71.01207 27 ft 9 kts 355°
2026-05-07 01:43 42.35926 -71.01177 28 ft 12 kts 21°
2026-05-07 01:43 42.35999 -71.01141 28 ft 10 kts 19°
2026-05-07 01:44 42.36076 -71.01106 28 ft 12 kts 18°
2026-05-07 01:44 42.36151 -71.01070 28 ft 12 kts 20°
2026-05-07 01:44 42.36210 -71.01046 27 ft 8 kts
2026-05-07 01:44 42.36241 -71.01090 29 ft 0 kts 295°
2026-05-07 01:45 42.36248 -71.01113 27 ft 6 kts 293°
2026-05-07 01:45 42.36278 -71.01193 28 ft 13 kts 299°
2026-05-07 01:45 42.36327 -71.01295 30 ft 10 kts 304°
2026-05-07 01:45 42.36355 -71.01328 29 ft 5 kts 354°
2026-05-07 01:46 42.36404 -71.01302 28 ft 3 kts 24°
2026-05-07 01:46 42.36440 -71.01281 28 ft 9 kts 21°
2026-05-07 01:46 42.36502 -71.01253 26 ft 7 kts 18°
2026-05-07 01:46 42.36527 -71.01242 28 ft 6 kts 18°
2026-05-07 01:47 42.36571 -71.01236 28 ft 7 kts 330°
2026-05-07 01:47 42.36600 -71.01280 29 ft 6 kts 342°
2026-05-07 01:47 42.36620 -71.01276 29 ft 3 kts 14°
2026-05-07 01:47 42.36651 -71.01265 28 ft 6 kts 14°
2026-05-07 01:48 42.36701 -71.01248 26 ft 6 kts 15°
2026-05-07 01:48 42.36755 -71.01243 27 ft 10 kts 348°
2026-05-07 01:48 42.36810 -71.01292 26 ft 7 kts 315°
2026-05-07 01:48 42.36853 -71.01354 29 ft 11 kts 312°
2026-05-07 01:49 42.36905 -71.01423 27 ft 9 kts 315°
2026-05-07 01:49 42.36949 -71.01482 30 ft 10 kts 311°
2026-05-07 01:49 42.36988 -71.01546 28 ft 9 kts 297°
2026-05-07 01:49 42.36955 -71.01616 28 ft 11 kts 211°
2026-05-07 01:50 42.36896 -71.01666 28 ft 1 kts 213°
2026-05-07 01:50 42.36876 -71.01682 27 ft 5 kts 202°
2026-05-07 01:50 42.36838 -71.01665 29 ft 6 kts 146°
2026-05-07 01:50 42.36802 -71.01636 29 ft 7 kts 151°
2026-05-07 01:51 42.36789 -71.01627 26 ft 3 kts 152°
2026-05-07 01:51 42.36779 -71.01620 29 ft 2 kts 152°
2026-05-07 01:51 42.36769 -71.01613 27 ft 2 kts 152°
2026-05-07 01:51 42.36768 -71.01612 30 ft 0 kts 152°